TimeEST,TemperatureF,Dew PointF,Humidity,Sea Level PressureIn,VisibilityMPH,Wind Direction,Wind SpeedMPH,Gust SpeedMPH,PrecipitationIn,Events,Conditions,WindDirDegrees,DateUTC
12:53 AM,21.9,16.0,78,30.71,10.0,Calm,Calm,-,N/A,,Clear,0,2013-11-05 05:53:00
1:53 AM,24.1,19.0,81,30.71,10.0,Calm,Calm,-,N/A,,Clear,0,2013-11-05 06:53:00
2:53 AM,24.1,18.0,77,30.70,10.0,Calm,Calm,-,N/A,,Clear,0,2013-11-05 07:53:00
3:53 AM,24.1,19.0,81,30.69,10.0,Calm,Calm,-,N/A,,Clear,0,2013-11-05 08:53:00
4:53 AM,24.1,19.0,81,30.70,10.0,Calm,Calm,-,N/A,,Clear,0,2013-11-05 09:53:00
5:53 AM,23.0,18.0,81,30.69,10.0,Calm,Calm,-,N/A,,Clear,0,2013-11-05 10:53:00
6:53 AM,21.9,18.0,85,30.71,10.0,Calm,Calm,-,N/A,,Clear,0,2013-11-05 11:53:00
7:53 AM,25.0,19.9,81,30.71,10.0,Calm,Calm,-,N/A,,Clear,0,2013-11-05 12:53:00
8:53 AM,28.9,21.9,75,30.71,10.0,Calm,Calm,-,N/A,,Clear,0,2013-11-05 13:53:00
9:53 AM,35.1,21.9,59,30.67,10.0,Calm,Calm,-,N/A,,Clear,0,2013-11-05 14:53:00
10:53 AM,42.1,21.0,43,30.65,10.0,SSW,11.5,-,N/A,,Clear,210,2013-11-05 15:53:00
11:53 AM,44.1,23.0,43,30.62,10.0,South,13.8,-,N/A,,Clear,180,2013-11-05 16:53:00
12:53 PM,46.9,24.1,41,30.58,10.0,SSW,11.5,-,N/A,,Clear,210,2013-11-05 17:53:00
1:53 PM,46.9,23.0,39,30.56,10.0,South,9.2,-,N/A,,Clear,190,2013-11-05 18:53:00
2:53 PM,48.0,25.0,41,30.55,10.0,SSW,10.4,-,N/A,,Clear,200,2013-11-05 19:53:00
3:53 PM,46.9,25.0,42,30.54,10.0,SSW,4.6,-,N/A,,Clear,210,2013-11-05 20:53:00
4:53 PM,36.0,26.1,67,30.55,10.0,South,3.5,-,N/A,,Clear,170,2013-11-05 21:53:00
5:53 PM,32.0,25.0,75,30.55,10.0,South,3.5,-,N/A,,Clear,170,2013-11-05 22:53:00
6:53 PM,32.0,26.1,79,30.56,10.0,Calm,Calm,-,N/A,,Clear,0,2013-11-05 23:53:00
7:53 PM,30.0,25.0,82,30.55,10.0,South,4.6,-,N/A,,Clear,180,2013-11-06 00:53:00
8:53 PM,33.1,27.0,78,30.53,10.0,Calm,Calm,-,N/A,,Clear,0,2013-11-06 01:53:00
9:53 PM,35.1,28.0,76,30.51,10.0,Calm,Calm,-,N/A,,Clear,0,2013-11-06 02:53:00
10:53 PM,35.1,28.0,76,30.50,10.0,Calm,Calm,-,N/A,,Clear,0,2013-11-06 03:53:00
11:53 PM,34.0,28.9,82,30.48,10.0,Calm,Calm,-,N/A,,Partly Cloudy,0,2013-11-06 04:53:00